Tracking 30970 objects as of 3-Jul-2025
HD Live streaming from Space Station
objects crossing your sky now

SL-14 R/B

Track SL-14 R/B now!
10-day predictions


NORAD ID: 10096
Int'l Code: 1977-055B
Perigee: 570.9 km
Apogee: 629.6 km
Inclination: 75.8 °
Period: 96.5 minutes
Semi major axis: 6971 km
RCS: 3.6575 m2 (large)
Launch date: June 24, 1977
Source: Commonwealth of Independent States (former USSR) (CIS)
Launch site: PLESETSK MISSILE AND SPACE COMPLEX (PKMTR)

Note: This is a ROCKET BODY
Your satellite tracking list
Your tracking list is empty




NASA's NSSDC Master Catalog

Two Line Element Set (TLE):
1 10096U 77055B   25183.95175309  .00000450  00000-0  46320-4 0  9996
2 10096  75.8316 176.2378 0042136 276.5007  83.1389 14.91544750599336
Source of the keplerian elements: AFSPC